TimePDT,TemperatureF,Dew PointF,Humidity,Sea Level PressureIn,VisibilityMPH,Wind Direction,Wind SpeedMPH,Gust SpeedMPH,PrecipitationIn,Events,Conditions,WindDirDegrees,DateUTC
12:58 AM,32.7,23.9,70,29.73,10.0,SW,20.7,29.9,0.00,,Light Drizzle,230,2013-03-17 07:58:00
1:18 AM,32.0,23.0,69,29.70,10.0,WSW,19.6,27.6,N/A,,Clear,240,2013-03-17 08:18:00
1:20 AM,32.0,23.0,69,29.70,10.0,WSW,19.6,27.6,N/A,,Light Drizzle,240,2013-03-17 08:20:00
1:58 AM,32.7,22.3,65,29.74,10.0,WSW,29.9,36.8,0.00,Snow,Light Snow,240,2013-03-17 08:58:00
2:58 AM,30.7,24.4,77,29.77,10.0,SW,19.6,33.4,0.00,,Freezing Rain,230,2013-03-17 09:58:00
3:58 AM,30.7,24.8,79,29.79,10.0,SW,20.7,28.8,0.00,,Freezing Rain,230,2013-03-17 10:58:00
4:58 AM,30.4,24.3,78,29.80,10.0,SW,19.6,-,0.00,,Freezing Rain,220,2013-03-17 11:58:00
5:58 AM,29.1,24.6,83,29.84,10.0,SW,18.4,-,0.00,,Freezing Rain,220,2013-03-17 12:58:00
6:58 AM,28.8,24.8,85,29.87,10.0,SSW,16.1,-,0.00,,Freezing Rain,210,2013-03-17 13:58:00
7:58 AM,29.7,24.8,82,29.89,10.0,SSW,13.8,-,0.00,,Freezing Rain,210,2013-03-17 14:58:00
8:27 AM,32.0,24.8,75,29.85,10.0,SW,17.3,-,N/A,,Mostly Cloudy,230,2013-03-17 15:27:00
8:37 AM,32.0,24.8,75,29.85,10.0,SW,15.0,23.0,N/A,,Light Drizzle,230,2013-03-17 15:37:00
8:40 AM,32.0,24.8,75,29.85,10.0,SW,16.1,-,N/A,,Mostly Cloudy,220,2013-03-17 15:40:00
8:55 AM,32.0,24.8,75,29.86,10.0,SW,17.3,-,N/A,,Light Drizzle,220,2013-03-17 15:55:00
8:58 AM,30.7,24.3,77,29.92,10.0,SW,18.4,-,0.00,,Freezing Rain,220,2013-03-17 15:58:00
9:00 AM,32.0,24.8,75,29.86,10.0,SW,15.0,-,N/A,,Scattered Clouds,220,2013-03-17 16:00:00
9:18 AM,32.0,24.8,75,29.87,10.0,SW,17.3,-,N/A,,Light Drizzle,230,2013-03-17 16:18:00
9:58 AM,37.2,25.0,61,29.92,10.0,SW,20.7,-,0.00,,Light Drizzle,230,2013-03-17 16:58:00
10:16 AM,39.2,24.8,56,29.88,10.0,WSW,24.2,29.9,N/A,,Clear,240,2013-03-17 17:16:00
10:58 AM,39.4,21.7,49,29.96,10.0,WSW,21.9,29.9,0.00,,Clear,240,2013-03-17 17:58:00
11:58 AM,43.3,21.4,42,29.96,10.0,WSW,24.2,29.9,N/A,,Scattered Clouds,250,2013-03-17 18:58:00
12:58 PM,43.2,17.8,36,29.97,10.0,West,20.7,31.1,N/A,,Overcast,270,2013-03-17 19:58:00
12:59 PM,42.8,17.6,36,29.91,10.0,West,17.3,31.1,N/A,Rain,Light Rain,270,2013-03-17 19:59:00
1:31 PM,44.6,19.4,37,29.91,10.0,WSW,21.9,27.6,N/A,,Overcast,250,2013-03-17 20:31:00
1:55 PM,44.6,21.2,39,29.91,10.0,SW,20.7,27.6,N/A,Rain,Light Rain,230,2013-03-17 20:55:00
1:58 PM,45.1,21.7,40,29.96,10.0,SW,23.0,27.6,0.00,Rain,Light Rain,230,2013-03-17 20:58:00
2:12 PM,42.8,21.2,42,29.92,10.0,WSW,24.2,33.4,N/A,,Mostly Cloudy,240,2013-03-17 21:12:00
2:27 PM,44.6,21.2,39,29.91,10.0,WSW,21.9,27.6,N/A,,Light Drizzle,240,2013-03-17 21:27:00
2:34 PM,41.0,23.0,49,29.91,10.0,West,26.5,32.2,N/A,,Partly Cloudy,260,2013-03-17 21:34:00
2:58 PM,38.5,24.3,57,29.99,9.0,WSW,18.4,36.8,0.00,,Mostly Cloudy,250,2013-03-17 21:58:00
3:58 PM,41.9,23.4,48,30.00,10.0,WSW,25.3,28.8,N/A,,Clear,240,2013-03-17 22:58:00
4:42 PM,39.2,23.0,52,29.93,6.0,West,16.1,32.2,N/A,,Haze,270,2013-03-17 23:42:00
4:58 PM,43.0,18.3,37,29.98,10.0,West,20.7,26.5,N/A,,Mostly Cloudy,260,2013-03-17 23:58:00
5:58 PM,38.5,20.5,48,30.00,9.0,WSW,17.3,-,N/A,,Partly Cloudy,250,2013-03-18 00:58:00
6:58 PM,37.0,21.7,54,30.01,10.0,WSW,12.7,-,N/A,,Clear,240,2013-03-18 01:58:00
7:58 PM,34.0,19.4,55,30.02,10.0,SW,10.4,-,N/A,,Clear,230,2013-03-18 02:58:00
8:11 PM,33.8,19.4,56,29.94,10.0,WSW,11.5,-,N/A,,Clear,240,2013-03-18 03:11:00
8:28 PM,32.0,19.4,60,29.94,10.0,WSW,12.7,-,N/A,,Scattered Clouds,240,2013-03-18 03:28:00
8:58 PM,32.5,20.1,60,30.02,10.0,WSW,12.7,-,0.00,,Partly Cloudy,240,2013-03-18 03:58:00
9:51 PM,32.0,19.4,60,29.96,10.0,SW,12.7,-,N/A,,Clear,230,2013-03-18 04:51:00
9:58 PM,31.5,19.9,62,30.02,10.0,SW,15.0,-,0.00,,Clear,220,2013-03-18 04:58:00
10:33 PM,32.0,19.4,60,29.97,10.0,SW,12.7,-,N/A,,Mostly Cloudy,230,2013-03-18 05:33:00
10:58 PM,30.7,19.9,64,30.04,10.0,SW,10.4,-,0.00,,Mostly Cloudy,220,2013-03-18 05:58:00
11:58 PM,28.9,21.7,74,30.04,10.0,SSW,11.5,-,N/A,,Mostly Cloudy,200,2013-03-18 06:58:00